Location: Brno
(49.2000°N, 16.6330°E)
Time: 16:55:15
(UTC+02:00)

CARTOSAT-1 - Visible Passes

Search period start: 25 August 2016 00:00
Search period end: 04 September 2016 00:00
Orbit: 618 x 619 km, 97.9° (Epoch: 25 August)

Date Brightness Start Highest point End Pass type
(mag) Time Alt. Az. Time Alt. Az. Time Alt. Az.
25 Aug 5.7 21:02:15 10° ENE 21:03:51 12° NE 21:05:27 10° NE visible
25 Aug 3.4 22:39:05 80° ESE 22:39:13 82° ENE 22:43:34 10° NNW visible
26 Aug 6.2 00:16:13 12° W 00:16:13 12° W 00:17:37 10° WNW visible
26 Aug 5.4 21:19:01 14° E 21:20:25 16° ENE 21:23:06 10° NNE visible
26 Aug 3.7 22:56:09 68° W 22:56:09 68° W 23:00:20 10° NNW visible
27 Aug 5.0 21:36:05 21° E 21:37:01 22° ENE 21:40:21 10° NNE visible
27 Aug 4.4 23:13:13 45° W 23:13:13 45° W 23:17:02 10° NNW visible
28 Aug 4.6 21:53:09 29° E 21:53:39 30° ENE 21:57:27 10° N visible
28 Aug 5.0 23:30:17 31° W 23:30:17 31° W 23:33:37 10° NNW visible
29 Aug 4.1 22:10:13 43° ENE 22:10:20 43° ENE 22:14:27 10° N visible
29 Aug 5.6 23:47:22 22° WNW 23:47:22 22° WNW 23:50:03 10° NW visible
30 Aug 3.7 22:27:18 61° NE 22:27:18 61° NE 22:31:21 10° N visible
31 Aug 6.0 00:04:26 15° WNW 00:04:26 15° WNW 00:06:14 10° NW visible
31 Aug 5.6 21:07:14 12° ENE 21:08:23 13° ENE 21:10:22 10° NNE visible
31 Aug 3.8 22:44:22 68° NNW 22:44:22 68° NNW 22:48:11 10° NNW visible
01 Sep 6.4 00:21:30 10° WNW 00:21:30 10° WNW 00:21:41 10° WNW visible
01 Sep 5.3 21:24:18 17° ENE 21:24:57 18° ENE 21:27:51 10° NNE visible
01 Sep 4.3 23:01:26 51° NW 23:01:26 51° NW 23:04:55 10° NNW visible
02 Sep 4.9 21:41:22 24° ENE 21:41:34 24° ENE 21:45:04 10° N visible
02 Sep 4.9 23:18:30 35° WNW 23:18:30 35° WNW 23:21:35 10° NNW visible
03 Sep 4.5 21:58:26 33° ENE 21:58:26 33° ENE 22:02:07 10° N visible
03 Sep 5.5 23:35:35 25° WNW 23:35:35 25° WNW 23:38:07 10° NNW visible
